Theta_e
306 306 306 306 306 306 306 306 307 307 307 308 308 308 308 308 309 311 316 315 317 319 323 325 326 324 323 327 327 324 330 329 329 329 327 317 318 316 317 319 318 318 318 316 314
304 305 305 306 306 306 306 306 307 307 307 308 308 308 308 308 309 315 313 315 316 320 322 326 326 324 326 325 325 327 329 329 328 325 324 319 318 318 319 319 319 318 315 313 314
304 303 303 305 305 306 306 306 306 306 307 307 307 308 308 308 318 315 318 316 316 317 320 322 323 324 325 324 325 325 325 324 324 325 321 320 316 317 319 320 320 320 317 316 316
305 303 302 303 303 304 305 306 305 306 306 306 306 307 308 310 312 318 320 318 319 317 320 321 322 323 323 323 323 324 325 325 325 321 318 318 317 318 319 320 319 318 317 316 317
303 301 300 300 301 302 303 304 305 305 305 306 306 306 308 314 312 314 320 316 317 318 320 322 323 323 323 323 322 324 324 321 320 317 317 316 318 319 319 319 317 317 316 317 318
305 304 304 301 299 299 300 302 305 305 305 306 305 306 312 311 310 311 311 313 317 321 321 321 323 323 323 322 323 324 322 319 317 317 317 318 318 318 319 319 317 317 317 317 317
306 306 305 304 303 299 298 301 304 305 306 306 306 309 315 311 310 314 321 322 321 322 322 321 321 323 324 324 322 320 321 320 319 318 318 317 319 319 320 319 319 317 317 316 317
307 306 306 305 304 303 300 298 301 303 304 306 309 315 311 311 311 311 313 316 319 317 321 321 321 322 323 321 321 320 320 322 320 318 317 318 322 321 319 319 320 317 316 317 317
307 307 307 306 305 303 302 299 299 302 306 315 316 317 314 311 314 312 311 311 313 317 322 320 322 324 320 323 322 322 326 325 322 318 317 318 321 320 318 319 321 318 317 317 317
307 306 306 306 305 304 302 299 302 309 317 317 319 317 314 312 313 317 315 313 319 321 322 322 321 323 322 323 324 324 323 321 322 321 318 319 318 321 319 319 320 319 317 318 318
309 307 306 305 304 304 303 300 311 317 320 315 315 312 311 314 314 317 317 315 321 322 323 322 324 326 325 323 322 323 323 324 322 321 320 321 322 321 321 319 320 319 318 318 319
306 309 307 305 304 304 302 304 305 303 310 311 313 316 315 315 314 315 319 320 323 322 322 322 326 325 323 322 321 322 323 324 323 320 320 322 322 322 321 321 321 321 319 319 319
304 306 308 306 304 303 301 305 303 303 312 313 313 314 315 314 315 316 321 321 322 323 323 326 325 321 322 322 323 323 324 324 324 321 319 320 322 323 322 319 319 320 320 319 319
303 305 307 306 303 302 302 303 302 303 315 315 316 315 315 315 316 315 317 322 322 323 323 325 322 322 323 324 324 326 323 323 323 323 325 320 325 323 323 324 322 321 319 319 319
304 304 307 306 304 304 302 301 302 305 312 313 316 315 316 316 317 316 317 320 324 323 324 325 323 324 324 324 323 325 322 323 323 324 322 322 322 322 322 324 325 326 321 319 318
303 304 306 305 303 304 303 302 306 317 316 314 316 317 317 316 316 316 317 320 323 324 323 325 322 324 324 323 323 323 322 321 321 322 325 323 322 322 323 324 325 325 322 319 318
303 302 304 305 304 304 303 305 318 319 313 315 316 317 318 317 316 318 317 318 323 326 327 324 325 322 323 324 321 323 325 326 327 327 325 322 322 323 324 325 323 324 324 319 318
302 302 303 304 306 304 303 310 317 313 314 314 314 318 317 318 317 316 318 318 321 324 326 327 327 323 322 325 324 324 326 325 328 325 324 322 324 322 325 326 326 324 323 319 318
300 303 303 304 306 303 304 312 312 313 314 313 314 318 318 318 317 316 318 318 320 324 324 326 325 322 322 322 324 321 323 323 325 322 323 323 325 326 328 328 326 322 319 318 318
302 304 304 304 304 303 305 309 310 312 313 313 315 315 319 318 318 317 318 317 318 321 324 324 325 323 322 322 320 323 321 323 321 325 327 323 326 325 326 327 330 324 322 319 318
302 305 304 304 304 304 307 306 307 310 313 314 314 316 317 318 318 318 317 316 318 319 322 324 324 324 322 324 324 321 323 323 323 322 326 327 325 327 328 333 335 331 324 320 319
302 305 304 304 305 304 307 305 306 306 308 311 314 314 316 317 318 319 318 317 317 320 321 323 326 326 324 323 324 324 324 325 325 327 324 325 325 324 331 333 334 331 323 320 319
302 302 304 305 306 308 306 306 305 306 306 310 314 314 314 317 319 319 318 317 316 319 323 323 328 327 324 329 329 324 323 325 326 327 327 326 326 327 331 333 331 329 323 319 319
300 304 300 305 305 307 307 306 306 305 305 305 306 314 314 315 316 318 318 316 316 318 326 324 327 327 326 324 326 329 328 324 326 326 325 326 325 329 331 332 330 330 324 321 319
300 303 301 305 304 305 305 306 306 307 305 307 308 311 314 315 315 315 316 315 315 324 321 325 326 323 323 322 325 325 326 328 327 325 326 326 328 327 329 331 332 330 324 321 320
300 303 300 304 302 305 307 307 307 305 306 305 308 312 312 315 314 315 315 316 316 315 321 321 325 323 322 321 322 322 322 325 327 325 326 325 326 328 329 331 331 328 323 322 321
298 300 302 305 306 308 307 306 306 306 305 305 306 307 310 311 312 312 312 312 312 314 316 322 327 324 324 322 321 324 322 322 326 326 325 326 327 328 331 332 332 330 325 324 323
Wind_Speed
13 15 15 16 16 16 17 18 16 17 16 16 16 17 18 18 18 15 8 14 14 17 7 13 8 7 6 4 3 2 3 5 5 3 4 3 6 3 0 4 3 3 1 1 12
14 14 15 16 18 17 19 20 19 20 19 20 18 18 18 18 17 16 22 19 20 14 14 15 9 11 5 5 4 5 3 5 5 5 8 5 9 6 6 4 4 3 5 9 9
16 17 18 17 18 19 20 20 20 20 19 19 18 17 16 13 6 7 7 6 22 24 17 10 13 11 7 4 6 5 9 10 11 16 11 6 6 7 7 6 9 13 12 11 9
17 18 19 20 20 20 20 21 21 19 19 20 20 17 15 3 7 4 11 10 9 24 15 14 11 8 5 5 5 8 11 9 8 5 5 5 5 7 10 9 2 9 15 13 10
20 21 21 22 23 23 23 22 20 19 20 20 20 18 7 4 11 11 13 10 6 21 23 14 12 7 8 6 5 9 13 5 6 4 5 6 5 6 11 6 4 12 14 12 9
21 21 22 22 22 24 25 25 21 20 21 20 21 16 3 13 12 16 19 15 11 20 20 17 11 12 4 5 10 6 9 1 1 1 1 3 2 2 3 7 9 14 14 11 10
22 21 22 22 22 24 25 26 24 22 23 22 22 8 6 19 7 4 2 3 10 15 9 19 11 9 9 5 5 3 5 3 2 2 1 3 5 9 7 10 12 13 11 10 10
23 22 22 22 23 25 25 25 24 24 24 24 14 7 9 11 13 25 23 14 7 4 10 14 14 5 4 3 1 4 3 2 1 3 0 7 13 10 8 13 14 13 11 11 11
22 22 23 24 25 26 29 26 22 23 17 7 8 6 9 4 8 20 19 11 17 8 11 10 15 6 5 7 5 2 4 5 5 5 2 8 10 7 3 13 13 13 13 12 10
20 20 20 22 24 25 30 24 15 3 4 5 4 3 9 5 5 6 9 19 4 12 8 7 4 8 6 8 11 8 3 3 4 2 5 7 14 19 8 12 15 14 13 12 12
20 21 20 20 22 23 29 7 2 3 7 9 8 5 4 5 4 4 6 18 8 8 11 9 10 16 17 11 6 7 4 4 5 6 4 9 13 18 11 11 13 13 15 15 14
23 19 18 18 20 21 15 2 5 4 8 14 19 18 17 3 4 4 15 12 10 13 11 7 18 13 11 10 8 6 4 5 6 4 4 10 14 16 11 8 13 16 16 17 14
22 22 18 16 18 15 6 1 7 6 5 9 12 13 16 16 9 7 11 7 11 13 21 19 10 13 11 10 9 6 6 4 8 1 5 6 8 7 6 5 6 10 15 16 17
21 19 17 11 9 5 4 5 9 1 5 6 9 10 17 11 9 17 17 8 5 19 14 13 10 14 12 13 12 10 11 6 5 4 8 2 6 6 8 12 9 11 14 16 17
19 16 15 10 6 3 2 7 10 4 6 5 7 1 12 23 10 13 18 9 14 11 11 15 15 15 12 12 12 9 6 5 3 6 2 4 4 4 4 9 14 11 14 16 18
18 17 14 11 10 13 13 12 5 4 12 4 8 11 13 21 9 7 12 6 5 8 7 18 4 11 14 7 12 5 4 3 2 2 4 6 6 3 5 7 6 4 8 16 18
19 17 15 15 5 10 7 3 6 9 0 8 8 10 15 13 17 11 19 21 16 16 19 10 14 6 7 9 4 8 7 5 4 4 6 2 4 8 12 12 9 14 6 14 17
18 18 19 22 18 13 2 6 12 12 18 2 4 11 13 15 17 14 19 20 21 21 15 16 13 16 9 18 13 13 13 8 5 4 7 3 5 5 4 3 5 7 3 12 17
16 19 14 15 22 14 3 13 15 14 16 7 6 10 9 13 9 15 21 23 25 23 17 18 18 7 14 9 17 7 7 6 9 1 4 3 5 10 2 6 1 3 6 12 17
8 7 13 14 25 12 6 25 14 9 5 23 16 9 15 19 11 17 19 17 20 22 17 7 9 13 11 10 7 13 12 5 2 5 7 4 3 7 8 8 2 4 7 12 15
8 4 10 23 23 5 12 16 21 13 9 12 23 9 8 11 18 17 12 11 23 21 19 13 9 4 10 16 19 7 9 3 3 3 8 8 5 5 5 4 5 6 9 14 17
4 4 15 31 7 3 15 13 9 12 23 7 4 19 8 10 15 14 17 13 19 18 22 19 11 15 10 3 15 22 18 15 10 10 4 5 10 5 8 5 5 1 7 12 17
3 2 19 25 8 4 14 19 19 12 12 5 5 3 11 8 6 11 9 7 13 22 19 13 10 12 12 5 3 13 12 13 7 4 13 12 7 5 6 4 4 8 11 13 16
2 3 2 4 4 5 17 18 14 14 19 16 15 7 5 10 3 4 8 0 9 18 12 19 10 24 20 12 14 10 12 15 16 10 11 13 14 6 10 7 7 10 11 13 16
3 4 2 3 5 16 9 8 19 13 15 10 10 12 5 8 11 10 3 4 3 5 10 15 18 17 22 17 17 19 19 18 17 16 14 13 11 14 14 11 8 8 11 13 16
3 2 4 2 2 16 7 11 20 12 20 17 14 6 2 4 2 9 1 3 3 5 8 1 7 14 19 15 21 23 22 19 21 20 19 18 17 12 8 9 9 10 13 13 16
2 2 2 1 3 4 9 18 13 18 8 24 12 18 9 3 3 3 3 4 0 1 3 5 8 7 14 11 17 20 26 23 21 17 17 17 18 9 9 13 13 12 15 16 17
Wind_Direction
325 330 330 327 334 333 330 325 337 336 337 340 342 328 338 330 313 293 234 240 235 223 159 164 171 170 174 155 135 153 232 253 258 241 287 199 221 164 278 156 124 145 230 60 142
323 321 315 322 332 327 322 329 333 334 339 338 336 338 336 331 311 264 268 255 227 206 182 164 166 164 182 164 167 212 230 233 225 217 255 227 219 195 191 152 197 183 112 136 151
328 326 321 320 315 314 329 323 326 329 334 329 328 327 331 332 293 258 268 250 232 213 211 191 157 172 196 160 178 191 250 250 251 246 247 248 208 190 202 206 207 213 168 165 170
324 324 323 317 313 314 314 317 316 323 326 326 325 325 327 321 255 157 119 57 218 207 179 161 154 172 180 207 192 239 239 242 286 261 191 223 163 205 211 239 157 203 165 170 178
329 324 317 316 317 316 312 307 309 314 317 319 319 323 326 237 239 240 245 306 351 191 193 175 185 182 218 204 193 231 260 204 253 257 213 149 224 235 236 211 124 145 162 175 175
329 327 324 320 315 313 309 305 304 307 308 310 309 310 221 250 260 261 260 270 233 179 200 188 193 191 186 210 217 227 232 203 112 310 170 214 202 224 278 161 154 163 174 175 180
329 327 327 327 325 316 308 305 304 304 304 302 297 272 236 241 242 255 242 221 206 191 179 208 178 169 176 219 234 267 193 138 175 200 12 195 248 232 233 179 178 183 176 177 187
325 327 326 328 325 321 315 309 301 301 300 296 278 186 246 265 260 252 240 247 216 260 212 201 196 161 197 135 128 214 99 172 106 182 146 217 275 274 215 181 197 188 186 187 190
311 316 322 325 324 323 320 310 301 295 293 270 153 206 261 280 240 249 232 210 223 218 195 172 169 181 153 217 207 186 247 275 293 212 159 214 268 275 194 206 206 194 192 196 195
303 311 315 317 318 322 321 315 303 225 111 161 261 261 252 219 212 211 209 193 160 144 145 171 162 180 181 200 220 236 203 198 246 242 213 245 254 273 253 213 219 202 194 196 203
290 293 304 315 321 323 327 344 241 190 212 211 194 240 304 327 277 197 163 169 154 161 177 179 191 207 203 206 214 225 196 227 242 256 257 262 273 276 277 232 220 205 199 199 205
292 292 292 308 319 316 322 309 48 329 294 243 250 255 264 295 308 245 162 167 179 186 149 158 214 201 180 194 186 181 190 238 270 271 223 280 274 277 267 250 226 213 202 200 194
290 288 293 299 316 309 309 182 355 2 267 264 215 222 224 190 217 237 186 175 186 174 188 201 196 159 172 173 183 188 210 219 286 311 239 279 274 282 292 259 242 227 216 201 194
296 280 280 284 293 305 256 174 345 353 283 252 207 228 194 192 235 206 196 182 188 199 183 207 158 167 179 194 197 219 218 240 247 267 292 228 296 292 294 291 262 233 207 199 192
290 285 262 234 281 251 207 315 336 148 274 173 178 103 171 182 153 192 184 196 205 172 178 192 171 180 187 203 184 241 165 205 231 252 295 212 243 272 291 278 271 250 209 199 191
286 281 253 191 225 258 283 310 157 199 242 211 160 169 155 197 206 125 167 186 168 173 209 212 173 190 205 189 191 161 133 93 95 176 249 243 227 266 247 249 269 260 201 195 186
279 271 254 206 208 244 301 250 190 224 40 188 181 172 173 179 203 177 181 186 184 182 203 185 200 188 193 206 136 176 190 238 236 219 268 103 200 263 269 267 277 295 263 193 183
281 264 259 239 216 237 274 201 218 225 211 108 141 166 184 159 207 197 183 192 200 200 189 197 209 197 181 213 203 196 206 232 237 241 292 138 233 261 275 340 306 316 257 175 178
281 267 250 241 205 194 206 202 222 196 195 201 155 166 185 189 183 193 208 203 193 191 191 197 216 175 183 189 197 176 200 231 247 52 260 253 248 279 270 253 290 94 161 171 180
269 244 229 212 194 160 204 228 226 207 188 209 204 182 186 188 186 193 185 208 201 198 200 170 198 207 187 197 197 204 161 177 192 227 252 215 263 266 294 314 249 201 189 175 179
256 240 189 202 176 197 208 226 234 265 334 204 221 208 196 174 195 196 204 196 190 186 196 176 190 150 177 199 205 179 202 188 231 233 256 272 263 231 227 290 309 231 199 176 179
227 243 181 164 190 223 213 222 311 307 252 303 267 229 207 179 187 196 202 200 189 161 193 190 199 208 195 178 227 206 207 206 225 211 231 272 266 194 215 256 292 188 188 192 179
204 261 191 170 211 212 232 241 262 289 305 269 281 303 217 191 199 211 191 217 181 185 178 168 202 200 219 202 168 212 199 207 220 229 224 242 252 167 238 258 197 163 172 186 175
128 254 211 214 211 236 225 227 238 268 270 262 289 299 242 218 211 157 194 154 183 194 170 176 189 208 212 231 197 201 190 203 201 219 230 237 253 217 222 223 198 166 172 182 180
173 223 291 213 217 222 224 244 229 232 261 255 247 246 321 233 216 212 157 170 94 168 159 185 217 218 224 204 194 212 213 206 212 224 227 232 224 237 221 208 208 154 157 179 179
182 229 150 291 319 228 212 206 231 241 221 244 245 240 149 313 319 188 219 27 103 56 160 160 203 204 217 208 215 225 222 212 217 219 230 244 248 239 223 190 190 162 166 194 186
244 171 310 206 246 191 208 227 219 221 241 237 253 246 268 280 5 348 298 294 343 58 112 139 152 163 215 203 219 242 229 220 219 212 218 227 240 198 196 201 203 178 184 195 197